sat.trackr.live / text

‹ back to catalog

STARLINK-2245

NORAD 48589 · 2021-041AN

PAYLOAD ACTIVE UNKNOWN

§ Identity

Operator
Country
US
Launch date
2021-05-15
Launch site
AFETR
Launch vehicle
Mass (kg)
RCS (m²)

Purposes: comms

External: N2YO · Heavens-Above · Gunter

§ Orbital elements

Epoch: 2026-05-25T03:11:02.040864Z

Period
94.01 min
Inclination
53.1586°
Eccentricity
0.0001182
Mean motion
15.31698678 rev/d
Perigee alt
469.9 km
Apogee alt
471.6 km
Semi-major
6,848.9 km
B*
6.7778e-6
RAAN
131.2464°
Arg perigee
99.3074°
Mean anomaly
260.8061°
Rev number
27,698

§ Raw data

STARLINK-22451 48589U 21041AN  26145.13266251 -.00000155  00000+0  67778-5 0  99972 48589  53.1586 131.2464 0001182  99.3074 260.8061 15.31698678276988

JSON: /api/v1/satellites/48589 · /tle

For live sub-satellite position, see the globe view (requires WebGL).

§ Visibility from observer

Set your observer location to see the next 7 days of passes ≥ 10°. The values pass through the URL so the page stays shareable.

No JS? Fill the form by hand. The geolocation button needs JavaScript.